星链-4561 (STARLINK-4561 )

导读 | 豆包AI

STARLINK-4561是美国SpaceX星链(Starlink)互联网星座项目的一颗低轨通信卫星,于2022年8月19日发射升空。它属于Starlink v1.5平台,运行在约550公里近地轨道,旨在为全球尤其是网络覆盖薄弱地区提供高速宽带互联网服务。作为星链扩展全球卫星网络的组成部分,它采用先进通信技术,目前仍在轨正常运行,助力提升全球互联网接入的普及性与稳定性。

Basic Information
目录编号:
53563
目录名称:
STARLINK-4561
国际标识:
2022-101AN
轨道中心:
EARTH
卫星名称:
星链-4561
卫星全名:
星链-4561 (STARLINK-4561 )
卫星状态:
在轨 (已飞行1304 天)
发射日期:
2022-08-19 UTC
国别 :
美国 (US)
星等 :
--
Orbit Information
数据来源 国际轨道数据 AOE轨道数据
星历时间 2026-03-14T12:54:53+0800
1天前
查看轨道信息
2026-03-13T00:00:00+0800
2天前
查看轨道信息
半长轴 6917.883km 6917.833km
偏心率 0.000133 0.0001343
轨道倾角 53.218° 53.218°
近地点辐角 86.916° 107.125°
升交点赤经 34.075° 40.981°
平近点角 273.199° 173.681°
近地点 538.825km 538.766km
远地点 540.667km 540.626km
周期 95.438分钟 95.437分钟
每日圈数 15.088394 15.088556
Detailed Information
固有亮度:
5
最大亮度:
2.5
卫星平台:
Starlink v1.5
覆盖范围:
全球
运营商:
太空探索技术公司
运营商所在国:
美国
制造商(研发单位):
太空探索技术公司
制造商所在国:
美国
使用方式:
暂无
Satellite Introduction
星链(Starlink)计划是由太空探索技术公司(SpaceX)提出的一个巨型低轨卫星互联网星座项目,计划在2019年至2024年间在太空搭建由约1.2万颗卫星组成的“星链”网络,其中1584颗将部署在地球上空550千米处的近地轨道,并从2020年开始工作。该卫星仍在工作。
2D Orbit Map
3D Orbit Map
Orbit Altitude Analysis Chart
Orbit Inclination Analysis Chart
Orbit Comprehensive Analysis Chart
View Comprehensive Chart